Location: Boulin
(43.2500°N, 0.1333°E)
Time: 17:58:48
(UTC+00:00)

Cosmos 2098 Rocket - Visible Passes

Search period start: 07 March 2026 00:00
Search period end: 17 March 2026 00:00
Orbit: 348 x 854 km, 82.9° (Epoch: 7 March)

Date Brightness Start Highest point End Pass type
(mag) Time Alt. Az. Time Alt. Az. Time Alt. Az.
7 Mar 5.5 05:31:04 10° SE 05:32:56 16° E 05:34:53 10° NE visible
7 Mar 6.9 18:49:45 10° WNW 18:51:42 12° W 18:53:43 10° WSW visible
8 Mar 4.4 05:41:53 10° SSE 05:44:25 30° E 05:47:09 10° NNE visible
12 Mar 5.4 04:51:22 10° SE 04:53:24 17° E 04:55:34 10° NE visible
13 Mar 4.4 05:01:59 10° SSE 05:04:40 30° E 05:07:40 10° NNE visible
14 Mar 2.9 05:12:59 10° S 05:15:58 59° E 05:19:23 10° NNE visible
15 Mar 2.2 05:24:14 10° SSW 05:27:18 71° W 05:30:52 10° N visible
16 Mar 2.9 05:35:44 10° SSW 05:38:43 37° WNW 05:42:08 10° N visible
